Terminal Aerodrome Forecast
Issued by NWS St Louis, MO

Home | Current Version | Previous Version | Text Only | Print | Product List | Glossary On
Versions: 1 2 3 4 5 6 7 8 9 10 11 12 13 14 15 16 17 18 19 20 21 22 23 24 25 26 27 28
000
FTUS43 KLSX 302054 AAA
TAFSTL
TAF AMD
KSTL 302054Z 3021/3124 20006KT P6SM BKN050
     FM310000 15005KT P6SM SCT060
     FM311100 17007KT P6SM BKN040
     FM311700 18008KT P6SM SCT060=

USA.gov is the U.S. government's official web portal to all federal, state and local government web resources and services.